Weather History for Brady, TX

Change the Weather History Date:

Saturday, October 27, 2012

  Actual Average (KJCT) Record (KJCT)
Temperature  
Mean Temperature 49 °F -  
Max Temperature 59 °F 73 °F 91 °F (2010)
Min Temperature 39 °F 50 °F 27 °F (1997)
Degree Days  
Heating Degree Days 16    
Moisture  
Dew Point 25 °F    
Average Humidity 42    
Maximum Humidity 61    
Minimum Humidity 27    
Precipitation  
Precipitation 0.00 in - - ()
Sea Level Pressure  
Sea Level Pressure 30.25 in    
Wind  
Wind Speed 9 mph (North)    
Max Wind Speed 15 mph    
Max Gust Speed -    
Visibility 10 miles    
Events      
Averages and records for this station are not official NWS values.
T = Trace of Precipitation, MM = Missing Value Source: NWS Daily Summary

Daily Weather History Graph

Daily Weather History Graph

Search for Another Location

Airport:

Trip Planner

Search our weather history database for the weather conditions in past years. The results will help you decide how hot, cold, wet, or windy it might be!

Date:

Astronomy

Oct. 27, 2012 Rise Set
Actual Time 7:49 AM CDT 6:52 PM CDT
Civil Twilight 7:24 AM CDT 7:17 PM CDT
Nautical Twilight 6:55 AM CDT 7:45 PM CDT
Astronomical Twilight 6:27 AM CDT 8:14 PM CDT
Moon 5:35 PM CDT (10/27) 5:51 AM CDT (10/27)
Length of Visible Light 11h 52m
Length of Day
11h 03m
Waxing Gibbous, 96% of the Moon is Illuminated
Oct 27
Waxing Gibbous
Oct 29
Full
Nov 6
Last Quarter
Nov 13
New
Nov 20
First Quarter

Hourly Weather History & Observations

Time (CDT) Temp. Windchill Dew Point Humidity Pressure Visibility Wind Dir Wind Speed Gust Speed Precip Events Conditions
12:15 AM 46.4 °F 40.7 °F 26.6 °F 46% 30.32 in 10.0 mi North 12.7 mph - N/A   Overcast
12:35 AM 46.4 °F 40.4 °F 26.6 °F 46% 30.31 in 10.0 mi North 13.8 mph - N/A   Overcast
12:55 AM 46.4 °F 40.7 °F 26.6 °F 46% 30.31 in 10.0 mi North 12.7 mph - N/A   Overcast
1:15 AM 44.6 °F 39.7 °F 26.6 °F 49% 30.31 in 10.0 mi North 9.2 mph - N/A   Overcast
1:35 AM 44.6 °F 39.2 °F 26.6 °F 49% 30.30 in 10.0 mi North 10.4 mph - N/A   Overcast
1:55 AM 44.6 °F 39.2 °F 26.6 °F 49% 30.29 in 10.0 mi North 10.4 mph - N/A   Overcast
2:15 AM 44.6 °F 39.7 °F 26.6 °F 49% 30.30 in 10.0 mi North 9.2 mph - N/A   Overcast
2:35 AM 44.6 °F 39.7 °F 24.8 °F 46% 30.29 in 10.0 mi North 9.2 mph - N/A   Overcast
2:55 AM 44.6 °F 38.8 °F 24.8 °F 46% 30.29 in 10.0 mi North 11.5 mph - N/A   Overcast
3:15 AM 44.6 °F 38.8 °F 24.8 °F 46% 30.29 in 10.0 mi North 11.5 mph - N/A   Overcast
3:35 AM 44.6 °F 38.8 °F 24.8 °F 46% 30.28 in 10.0 mi North 11.5 mph - N/A   Overcast
3:55 AM 44.6 °F 38.8 °F 24.8 °F 46% 30.28 in 10.0 mi North 11.5 mph - N/A   Overcast
4:15 AM 44.6 °F 38.8 °F 24.8 °F 46% 30.28 in 10.0 mi North 11.5 mph - N/A   Overcast
4:35 AM 42.8 °F 36.2 °F 24.8 °F 49% 30.28 in 10.0 mi North 12.7 mph - N/A   Overcast
4:55 AM 42.8 °F 35.4 °F 24.8 °F 49% 30.28 in 10.0 mi North 15.0 mph - N/A   Overcast
5:15 AM 42.8 °F 35.8 °F 24.8 °F 49% 30.28 in 10.0 mi North 13.8 mph - N/A   Overcast
5:35 AM 42.8 °F 36.2 °F 24.8 °F 49% 30.29 in 10.0 mi NNE 12.7 mph - N/A   Overcast
5:55 AM 42.8 °F 37.5 °F 26.6 °F 53% 30.29 in 10.0 mi North 9.2 mph - N/A   Overcast
6:15 AM 41.0 °F 34.7 °F 24.8 °F 53% 30.30 in 10.0 mi North 10.4 mph - N/A   Overcast
6:35 AM 41.0 °F 35.8 °F 24.8 °F 53% 30.30 in 10.0 mi North 8.1 mph - N/A   Overcast
6:55 AM 41.0 °F 35.2 °F 26.6 °F 57% 30.31 in 10.0 mi North 9.2 mph - N/A   Overcast
7:15 AM 41.0 °F 34.7 °F 26.6 °F 57% 30.31 in 10.0 mi North 10.4 mph - N/A   Overcast
7:35 AM 39.2 °F 33.0 °F 26.6 °F 61% 30.31 in 10.0 mi North 9.2 mph - N/A   Overcast
7:55 AM 39.2 °F 33.6 °F 26.6 °F 61% 30.31 in 10.0 mi North 8.1 mph - N/A   Overcast
8:15 AM 39.2 °F 32.5 °F 26.6 °F 61% 30.31 in 10.0 mi NNW 10.4 mph - N/A   Overcast
8:35 AM 39.2 °F 32.5 °F 26.6 °F 61% 30.32 in 10.0 mi North 10.4 mph - N/A   Overcast
8:55 AM 39.2 °F 33.6 °F 26.6 °F 61% 30.33 in 10.0 mi North 8.1 mph - N/A   Overcast
9:15 AM 41.0 °F 35.2 °F 26.6 °F 57% 30.34 in 10.0 mi North 9.2 mph - N/A   Overcast
9:55 AM 42.8 °F 38.0 °F 26.6 °F 53% 30.34 in 10.0 mi North 8.1 mph - N/A   Overcast
10:15 AM 42.8 °F 37.5 °F 26.6 °F 53% 30.33 in 10.0 mi North 9.2 mph - N/A   Overcast
10:35 AM 44.6 °F 41.4 °F 26.6 °F 49% 30.33 in 10.0 mi North 5.8 mph - N/A   Scattered Clouds
10:55 AM 46.4 °F 42.4 °F 24.8 °F 43% 30.32 in 10.0 mi NNE 8.1 mph - N/A   Clear
11:15 AM 46.4 °F 42.9 °F 24.8 °F 43% 30.32 in 10.0 mi North 6.9 mph - N/A   Mostly Cloudy
11:35 AM 48.2 °F - 24.8 °F 40% 30.31 in 10.0 mi North 5.8 mph - N/A   Overcast
12:15 PM 48.2 °F - 24.8 °F 40% 30.30 in 10.0 mi North 11.5 mph - N/A   Overcast
12:35 PM 48.2 °F - 24.8 °F 40% 30.29 in 10.0 mi NNE 6.9 mph - N/A   Overcast
12:55 PM 51.8 °F - 23.0 °F 33% 30.27 in 10.0 mi NNW 4.6 mph - N/A   Overcast
1:15 PM 51.8 °F - 24.8 °F 35% 30.26 in 10.0 mi NW 8.1 mph - N/A   Overcast
1:35 PM 53.6 °F - 26.6 °F 35% 30.24 in 10.0 mi NNW 6.9 mph - N/A   Mostly Cloudy
1:55 PM 53.6 °F - 24.8 °F 33% 30.22 in 10.0 mi North 5.8 mph - N/A   Overcast
2:15 PM 55.4 °F - 24.8 °F 31% 30.21 in 10.0 mi Variable 6.9 mph - N/A   Overcast
2:35 PM 53.6 °F - 23.0 °F 30% 30.20 in 10.0 mi NE 4.6 mph - N/A   Mostly Cloudy
2:55 PM 55.4 °F - 24.8 °F 31% 30.19 in 10.0 mi NW 4.6 mph - N/A   Mostly Cloudy
3:15 PM 57.2 °F - 24.8 °F 29% 30.18 in 10.0 mi Variable 4.6 mph - N/A   Mostly Cloudy
3:35 PM 57.2 °F - 24.8 °F 29% 30.18 in 10.0 mi WNW 4.6 mph - N/A   Mostly Cloudy
3:55 PM 57.2 °F - 24.8 °F 29% 30.17 in 10.0 mi NNE 5.8 mph - N/A   Scattered Clouds
4:15 PM 57.2 °F - 23.0 °F 27% 30.17 in 10.0 mi NE 4.6 mph - N/A   Partly Cloudy
4:35 PM 59.0 °F - 24.8 °F 27% 30.17 in 10.0 mi WSW 5.8 mph - N/A   Mostly Cloudy
4:55 PM 57.2 °F - 23.0 °F 27% 30.17 in 10.0 mi Variable 5.8 mph - N/A   Mostly Cloudy
5:15 PM 57.2 °F - 24.8 °F 29% 30.16 in 10.0 mi North 5.8 mph - N/A   Overcast
5:35 PM 55.4 °F - 24.8 °F 31% 30.16 in 10.0 mi NW 4.6 mph - N/A   Overcast
5:55 PM 55.4 °F - 24.8 °F 31% 30.16 in 10.0 mi NNW 4.6 mph - N/A   Overcast
6:15 PM 55.4 °F - 24.8 °F 31% 30.16 in 10.0 mi NW 4.6 mph - N/A   Overcast
6:35 PM 55.4 °F - 23.0 °F 29% 30.17 in 10.0 mi NNW 4.6 mph - N/A   Overcast
6:55 PM 55.4 °F - 24.8 °F 31% 30.17 in 10.0 mi NW 5.8 mph - N/A   Overcast
7:15 PM 55.4 °F - 24.8 °F 31% 30.17 in 10.0 mi NNW 5.8 mph - N/A   Overcast
7:35 PM 55.4 °F - 24.8 °F 31% 30.18 in 10.0 mi North 5.8 mph - N/A   Overcast
7:55 PM 55.4 °F - 24.8 °F 31% 30.18 in 10.0 mi North 4.6 mph - N/A   Overcast
8:15 PM 53.6 °F - 24.8 °F 33% 30.18 in 10.0 mi North 3.5 mph - N/A   Overcast
8:35 PM 53.6 °F - 24.8 °F 33% 30.19 in 10.0 mi Calm Calm - N/A   Overcast
8:55 PM 51.8 °F - 26.6 °F 38% 30.19 in 10.0 mi North 4.6 mph - N/A   Overcast
9:15 PM 50.0 °F - 26.6 °F 40% 30.19 in 10.0 mi NNE 4.6 mph - N/A   Overcast
9:55 PM 50.0 °F - 26.6 °F 40% 30.20 in 10.0 mi NNE 4.6 mph - N/A   Overcast
10:15 PM 51.8 °F - 24.8 °F 35% 30.21 in 10.0 mi NNE 5.8 mph - N/A   Mostly Cloudy
10:35 PM 51.8 °F - 24.8 °F 35% 30.22 in 10.0 mi NNE 6.9 mph - N/A   Overcast
10:55 PM 51.8 °F - 24.8 °F 35% 30.22 in 10.0 mi NE 5.8 mph - N/A   Overcast
11:15 PM 50.0 °F - 24.8 °F 37% 30.22 in 10.0 mi NE 5.8 mph - N/A   Overcast
11:35 PM 48.2 °F - 26.6 °F 43% 30.22 in 10.0 mi NNE 5.8 mph - N/A   Overcast
11:55 PM 50.0 °F - 24.8 °F 37% 30.22 in 10.0 mi NNE 5.8 mph - N/A   Overcast